AQI (45)

Current Conditions for Foresthill, CA. Clear skies, Dry   
Visibility: 10 miles
Foresthill Advisory text: No Warning

  Summary / Temperature 

Current Temperature
60.3°F
15.7°C
(24/hr Ago)
56.2°F
(Apparent temp)
59.8°F
Comfortable
Wind Chill Graphs
60.4°F 

61.5°F/ 16.4°C
 --- Virtual Temp: 62.8°F ---

 Temp Rate:

 24/hr Difference:

 Avg Running Temp:

 Todays High:

 Todays Low:

 Y-days High:

 Y-days Low:

 Todays WChill:

 Y-days WChill:

 Evapotranspiration:

-3.3°F/hr 

+4.1°F

63.5°F

71.9°F 2:34pm

51.7°F 6:41am

64.0°F 2:55pm

52.4°F 6:28am

47.3°F 6:47am

49.2°F 7:53am

0.120 in

115' Above Ground

 Temperature:

 6'AGL VRS 115'AGL:

 Avg Running Temp:

 Humidity:

 Todays High:

 Todays Low:

 Y-days High:

 Y-days Low:

62.0°F 

+1.7°F

64.7°F

59% 

73.0°F 1:55pm

55.0°F 4:12am

66.0°F 2:47pm

56.0°F 3:05am

Temp & Humidity Graphs

  Wind 

Wind Speed

 Calm

Gusting to

 None

Calm

215°  

Calm

 Avg speed:

 Wind Run:

 Peak Gust:

Calm 

73.0 miles

  18.0 mph 1:58am

  Almanac  

Moon age: 0 days,8 hours,42 minutes,0%

Waxing Crescent
2%
Illuminated
1 day in cycle

 Moonrise:

 Moonset:

 Sunrise:

 Sunset:

 Solar Noon:

8:05am

6:55pm

7:23am

6:13pm

12:47pm

2min 21s less daylight tomorrow 

  Solar Radiation 

(Current Solar)
  No Sun Light
(Todays High)
 659 W/m2@12:37pm

Rain

 Rain Today:

 Rain Rate (/hr):

 Rain last hour:

 Rain Yesterday:

 This Month:

 Season Total:

2 Days Since Last Rain Day

0.00 in

0.000 in

0.00 in

0.00 in

0.76 in

2.59 in

Updated Time

Updated: 10/24/14  7:43pm

(Updated  sec ago)

Humidity & Barometer

 Humidity:

 Wetbulb:

 Dew Point:

 Barometer:

63% 

53.6°F 

47.6°F 

29.935 inHg 

 Baro Trend:  Steady 
Northern Calif
Preparedness
Fire 
Level 

    UV Index  

(Current UV)
0.0  None
(Todays High) @ 12:30pm
5.2   Medium

Weather Underground 5 day Forecast

Fri Sat Sun Mon Tue
Clear  b?/b - T-storms  Chance Rain Partly Cloudy Clear
Clear  ? - T-storms  Chance Rain Partly Cloudy Clear
73 59 57 61 64
50 46 43 46 50

Foresthill Probe 2 Stats  
Foresthill Probe 2: is located on Thomas Street
at 3000 feet. The main Foresthill Weather site
is located on Melody ln at the 2860 foot elevation

Calm
56.9°F
13.8°C
Temp Rate:
-3.6°F
Calm
Gusting to
None
(Humidity)
68%
Calm
324°  
Updated: 24/10/14 - 19:42:41
 Todays High: 72.6°F 14:35
 Todays Low: 50.4°F 07:30
 Rain Today: 0.00 in
 Season Total: 2.81 in

Foresthill Wx: Monthly,Yearly, Highs and Lows 

Foresthill  
This Weather Data is coming from the main Foresthill
Weather site located on Melody ln at the 2860 foot
elevation
Not Foresthill Probe 2
Weather Data
Month
  High
Month
  Low
Year
High
Year
Low
Temp 86.5F
10/6/14
43.1F
10/21/14
96.4F
7/14/14
32.0F
2/4/14
Humidity 96%
10/21/14
9%
10/12/14
100%
3/1/14
9%
10/12/14
Heat Index 83.4F
10/6/14
49.0F
10/21/14
95.0F
7/14/14
35.5F
2/5/14
Wind Chill 86.5F
10/6/14
36.3F
10/21/14
96.4F
7/14/14
21.6F
2/5/14
Wind Gust 26 mph
10/1/14
0 mph
10/1/14
40 mph
3/12/14
0 mph
1/1/14
Barometer 30.16 in
10/3/14
29.77 in
10/14/14
30.55 in
1/14/14
29.47 in
2/28/14
ET 0.18 in
10/8/14
0.00 in
10/1/14
0.27 in
7/4/14
0.00 in
1/1/14
Dew Point 53.8F
10/16/14
17.4F
10/12/14
64.6F
8/4/14
5.1F
1/4/14
Infrared Satellite Regional Radar Satellite Imagery Sacramento,CA.  (click to enlarge)
NWS Weather Forecast - Outlook: Tonight and Saturday
Tonight

Increasing Clouds
Increasing
Clouds
Lo 50 °F
NWS forecast: Increasing clouds, with a low around 50. South southeast wind 6 to 9 mph.
Saturday

Showers Likely. Chance for Measurable Precipitation 60%
Showers
Likely
Hi 57 °F
NWS forecast: Showers likely, mainly after 11am. Mostly cloudy, with a high near 57. South wind 9 to 17 mph, with gusts as high as 26 mph. Chance of precipitation is 60%. New precipitation amounts between a quarter and half of an inch possible.
NWS Weather Forecast - Summary
Updated: Friday, October 24, 2014 - 3:34pm (PDT)
YR.NO 10 Day Weather forecast
Last update: 10/24/2014 @ 12:07
Next update: 10/25/2014 @ 01:00
Provided by: 22
      Temperature Precipitation Pressure Wind  
Today
10/24/2014
17:00 23:00 66°F   29.90 inHg Light air from southwest 3 mph
  23:00 05:00 48°F   29.93 inHg Light breeze from east 4 mph
    (Click to enlarge)
meteogram

    Forecast for next 9 days

      Temperature Precip Pressure Wind  
Saturday
10/25/2014
05:00 11:00 50°F 0.08 in 29.96 inHg Light air from southeast 3 mph
  11:00 17:00 52°F 0.53 in 30.00 inHg Gentle breeze from south-southwest 9 mph
  17:00 23:00 50°F 0.56 in 30.06 inHg Gentle breeze from south 8 mph
  23:00 05:00 46°F 0.05 in 30.14 inHg Light breeze from south-southeast 5 mph
      Temperature Precip Pressure Wind  
Sunday
10/26/2014
05:00 11:00 45°F   30.15 inHg Light air from east 2 mph
  11:00 17:00 52°F   30.14 inHg Light air from west-northwest 1 mph
  17:00 23:00 54°F   30.04 inHg Light breeze from west-northwest 6 mph
  23:00 05:00 39°F   30.00 inHg Light breeze from east-northeast 6 mph
      Temperature Precip Pressure Wind  
Monday
10/27/2014
05:00 11:00 37°F   29.96 inHg Light breeze from east-northeast 6 mph
  11:00 17:00 57°F   29.99 inHg Light air from west 2 mph
  17:00 23:00 57°F   29.97 inHg Light air from west 3 mph
  23:00 05:00 39°F   30.02 inHg Light air from east 2 mph
      Temperature Precip Pressure Wind  
Tuesday
10/28/2014
05:00 11:00 36°F   30.03 inHg Light air from east-northeast 2 mph
  11:00 17:00 61°F   30.08 inHg Light air from west 2 mph
  17:00 23:00 63°F   30.07 inHg Light air from west 3 mph
  23:00 05:00 45°F   30.12 inHg Light air from east-northeast 2 mph
      Temperature Precip Pressure Wind  
Wednesday
10/29/2014
05:00 11:00 41°F   30.11 inHg Light air from east-northeast 3 mph
  11:00 17:00 68°F   30.13 inHg Light air from west-northwest 1 mph
  17:00 23:00 68°F   30.08 inHg Light air from west 3 mph
  23:00 05:00 50°F   30.07 inHg Light air from east-northeast 2 mph
      Temperature Precip Pressure Wind  
Thursday
10/30/2014
05:00 11:00 46°F   30.04 inHg Light breeze from east-northeast 4 mph
  11:00 17:00 68°F   30.05 inHg Light air from east 2 mph
  17:00 23:00 72°F   29.99 inHg Light air from southwest 2 mph
  23:00 05:00 48°F   30.01 inHg Light breeze from east 4 mph
      Temperature Precip Pressure Wind  
Friday
10/31/2014
05:00 11:00 45°F   30.01 inHg Light breeze from east-northeast 5 mph
  11:00 17:00 72°F   30.04 inHg Light air from northeast 1 mph
  17:00 23:00 72°F   30.01 inHg Light air from north 1 mph
  23:00 05:00 48°F   30.05 inHg Light breeze from east 5 mph
      Temperature Precip Pressure Wind  
Saturday
11/01/2014
05:00 11:00 48°F   30.04 inHg Light breeze from east-northeast 6 mph
  11:00 17:00 64°F   30.06 inHg Light breeze from east-northeast 5 mph
  17:00 22:00 72°F   30.00 inHg Light air from west-southwest 3 mph
  22:00 04:00 52°F   30.01 inHg Light breeze from east-northeast 4 mph
      Temperature Precip Pressure Wind  
Sunday
11/02/2014
04:00 10:00 50°F   29.93 inHg Light breeze from east-northeast 6 mph
  10:00 16:00 70°F   29.93 inHg Light air from southwest 2 mph
  16:00 22:00 66°F   29.84 inHg Light air from west 2 mph
  22:00 04:00 54°F   29.83 inHg Light air from east-northeast 3 mph

Weather History For Friday, October 24, 2014


On this Day - In Weather History ...
Data courtesy of weatherforyou.com
powered by Cumulus v1.9.3 (1059)
Ambient Weather VWS v14.00
Top Contact Website Map Copyright © 2007 - 2014 Foresthillweather.com Never base important decisions on this or any weather information obtained from the Internet